Presure
201 173 159 188 183 176 150 140 135 179 172 161 169 157 133 179 127 162 146 171 158 159 166 177 172 177 168 139 138 149 136 131 151 137 137 140 149 158 164 141 133 154 167
133 140 144 142 169 175 189 183 174 143 142 134 169 174 151 141 133 132 171 167 165 172 184 179 147 160 165 137 158 138 139 140 127 138 170 167 166 162 163 151 143 122 153
142 168 159 150 172 154 177 187 176 167 173 144 144 152 164 197 164 178 136 144 180 176 148 170 174 174 130 160 158 136 138 140 145 131 155 130 140 165 160 168 138 125 160
165 147 212 178 171 141 180 169 178 168 163 175 183 143 151 162 156 146 160 132 167 175 133 144 162 127 168 158 137 144 133 134 130 140 127 139 154 151 169 149 144 179 179
213 171 143 190 230 138 168 163 174 172 180 189 211 179 156 153 157 151 134 172 140 189 163 135 146 142 144 150 144 149 152 164 128 141 135 166 134 143 136 150 144 154 249
176 167 203 139 172 163 182 127 160 178 170 176 185 182 297 302 223 159 163 163 156 141 133 145 177 153 141 139 142 144 147 120 119 141 150 149 156 196 150 167 161 153 173
195 168 178 167 156 172 149 178 185 205 182 215 179 212 183 168 283 244 181 158 167 167 145 139 154 132 136 138 134 134 138 152 153 140 141 121 169 129 121 133 158 163 175
204 172 171 173 176 216 223 209 170 188 176 202 165 181 130 126 177 195 215 144 229 190 163 143 153 134 130 143 146 136 123 117 121 133 122 143 150 129 174 153 144 159 152
232 184 211 183 169 230 262 245 211 221 258 206 174 209 212 186 192 244 263 198 269 218 216 176 228 190 171 144 142 144 143 140 145 144 151 150 142 125 111 150 152 155 159
202 212 204 199 200 214 214 223 223 214 223 216 195 234 195 187 188 184 183 148 290 256 304 201 197 186 195 251 180 149 145 159 147 156 157 153 149 143 142 148 134 137 145
238 202 207 83 236 152 233 228 253 243 221 242 193 188 188 206 196 166 168 165 163 169 220 151 239 194 222 233 213 183 189 154 174 162 153 134 133 144 170 140 146 165 152
222 176 203 189 177 180 172 171 173 170 166 159 195 167 165 187 201 186 185 177 251 184 171 169 166 163 182 219 250 198 180 165 156 154 145 158 161 120 180 161 160 154 127
159 160 163 167 163 172 226 223 197 198 170 174 180 182 189 242 240 241 241 259 275 284 284 184 232 195 282 173 180 185 183 201 172 171 196 160 160 168 168 160 166 181 164
162 159 164 172 208 221 255 210 198 193 186 251 245 243 240 239 238 238 234 239 258 272 275 279 283 283 202 254 184 218 182 195 199 124 170 190 156 164 151 150 133 174 160
168 172 215 183 156 175 192 189 221 233 229 227 222 222 220 222 227 234 229 275 274 278 288 278 270 272 277 228 230 255 238 199 189 178 187 199 172 156 167 155 159 152 160
155 216 156 160 154 181 178 223 227 229 233 237 242 243 245 249 263 260 263 265 267 267 267 270 268 266 266 268 276 277 230 264 265 209 202 200 186 181 183 179 166 149 155
143 149 158 165 171 186 245 249 233 242 251 253 254 262 266 253 274 280 262 256 257 255 256 265 269 266 265 261 264 269 276 274 219 259 271 267 209 206 196 151 188 185 183
237 226 219 230 253 164 229 231 225 222 160 160 160 233 304 286 247 280 273 257 250 250 249 251 258 258 258 253 251 250 258 268 276 275 266 255 265 284 209 200 202 143 191
250 252 246 246 204 190 234 189 141 134 256 266 246 237 246 247 243 251 253 249 247 249 248 246 269 265 263 254 249 248 244 243 249 256 266 273 256 257 281 263 203 184 198
254 253 255 251 132 236 259 264 266 252 271 256 255 247 239 241 253 260 281 278 271 263 264 270 272 268 259 252 250 240 243 246 246 245 248 254 269 270 255 250 288 223 209
139 262 266 263 287 263 261 262 267 273 279 266 264 255 259 377 306 297 285 339 376 408 289 263 260 255 251 248 237 240 247 237 265 317 325 330 256 256 273 255 262 277 269
299 288 288 284 306 296 295 311 279 283 277 264 266 341 281 265 246 238 239 251 264 284 415 437 299 255 235 232 246 283 287 293 309 313 317 316 347 354 250 264 264 252 266
319 310 301 297 301 302 303 304 297 260 249 309 266 247 236 235 239 244 230 234 236 253 344 443 471 353 271 256 290 304 299 291 288 300 304 310 345 341 370 290 260 264 242
282 282 287 292 293 287 269 248 256 297 257 240 230 226 233 229 236 248 239 241 237 229 257 264 266 260 252 263 273 274 278 284 290 293 318 313 312 340 352 379 250 256 257
267 275 267 253 249 242 248 300 257 242 228 225 227 226 235 226 271 410 374 292 226 228 233 242 249 246 243 250 259 266 272 287 284 292 413 399 402 357 361 374 301 237 252
254 246 243 245 244 309 270 244 231 225 217 220 226 224 227 296 364 392 318 292 246 250 251 240 228 241 242 248 256 259 266 276 278 289 301 416 381 372 369 369 287 225 226
Wind_Speed
29 18 16 16 9 10 17 12 7 6 11 16 19 19 5 29 10 23 17 30 23 21 16 15 12 16 11 15 9 8 13 9 2 8 6 5 8 13 18 17 9 14 15
11 12 10 15 11 10 7 5 11 14 14 11 26 23 16 8 5 7 32 31 27 32 34 23 11 19 13 12 11 12 12 7 5 5 10 12 15 14 13 11 17 14 17
13 20 17 20 20 19 17 12 16 16 18 23 20 25 32 35 32 42 3 9 35 30 14 27 25 24 19 10 10 12 9 10 9 8 8 5 8 18 16 21 16 11 25
22 16 34 29 29 23 27 21 18 21 28 33 32 24 27 22 16 7 23 8 23 28 6 13 27 12 17 16 13 11 12 12 9 9 11 5 14 14 20 12 17 29 25
34 31 23 31 41 22 22 29 24 26 35 36 36 37 34 27 30 13 18 40 12 46 22 14 18 20 21 22 17 18 19 21 13 11 14 16 6 8 10 16 15 28 15
40 33 44 23 36 33 39 12 28 32 32 32 40 39 40 32 42 37 38 31 21 19 20 21 32 24 23 24 23 23 20 16 14 19 18 14 15 26 16 25 23 25 29
39 39 45 40 33 40 30 44 43 42 39 55 38 41 42 19 38 45 28 24 38 34 26 26 30 26 27 27 29 28 27 26 26 17 13 17 18 16 21 15 20 24 32
42 38 40 43 45 45 46 47 43 42 40 49 42 43 20 19 40 47 49 22 54 55 41 33 33 33 31 32 32 36 33 25 22 19 19 18 24 22 27 29 22 20 12
40 52 46 41 43 47 45 49 53 52 48 52 41 44 45 43 42 39 42 51 46 57 60 43 58 51 43 39 39 40 41 39 37 36 37 31 22 23 19 24 24 20 19
45 43 48 52 50 51 51 50 50 49 51 53 55 51 49 46 47 48 48 34 42 50 39 62 61 53 55 52 51 45 45 48 44 48 46 39 29 28 24 33 31 21 24
46 49 50 15 49 28 50 51 48 52 54 52 55 54 53 56 54 47 47 47 47 48 54 38 58 61 65 58 57 56 56 49 54 56 47 36 31 35 48 33 39 41 30
50 49 48 48 48 51 50 49 50 50 51 49 57 55 54 58 58 57 56 57 49 57 57 54 50 47 54 66 63 59 58 58 56 57 49 52 47 36 47 49 45 43 35
48 48 49 52 51 52 54 55 56 55 55 59 61 64 66 60 61 60 59 55 50 48 51 63 62 62 47 54 59 61 60 67 64 61 73 59 53 52 49 48 54 54 49
52 50 54 57 57 55 49 60 62 61 60 57 59 60 60 61 62 63 62 61 57 53 52 54 54 56 69 59 61 75 62 68 71 41 65 74 58 58 48 48 46 58 52
65 64 61 63 54 61 64 65 59 59 60 61 64 65 66 66 68 67 65 58 55 53 50 52 55 57 58 49 69 63 72 75 73 69 75 76 73 59 62 53 60 55 57
58 69 62 63 59 69 67 67 65 63 63 61 62 64 65 65 65 68 67 64 61 57 53 54 56 57 59 61 60 63 71 63 66 84 84 87 81 80 77 72 63 61 59
58 59 61 63 67 76 63 61 67 69 65 65 66 67 66 65 62 62 66 66 65 64 62 60 59 59 59 60 60 62 62 65 77 66 62 68 91 89 83 55 74 72 71
77 76 75 73 68 63 67 67 67 67 53 57 58 66 60 60 63 60 63 64 66 67 67 66 64 65 64 63 63 63 62 62 63 64 67 70 72 67 91 86 83 57 75
79 78 79 77 70 56 72 62 46 53 66 63 65 70 69 66 65 65 65 65 68 69 69 69 67 68 68 67 68 68 68 70 70 68 67 71 76 76 72 81 85 72 79
80 85 86 83 47 75 75 76 73 63 66 59 63 66 68 71 70 72 75 74 72 72 72 70 66 64 64 65 67 70 73 75 77 76 76 76 76 79 78 78 78 92 90
53 84 89 84 84 76 77 77 73 68 66 60 61 61 63 60 42 43 39 47 62 69 74 71 69 65 63 64 70 73 75 75 80 71 70 71 84 80 81 82 82 81 85
90 82 85 79 75 79 71 66 72 70 54 51 51 52 38 28 33 39 41 39 39 40 54 59 73 65 61 70 69 59 63 66 61 61 60 62 63 62 82 83 85 82 80
40 38 39 43 44 42 44 43 43 36 39 40 29 28 35 41 41 38 42 44 43 39 33 41 47 53 37 45 32 38 40 42 44 46 51 54 60 59 58 76 82 81 78
24 25 29 28 27 24 22 26 31 29 18 23 28 37 39 39 44 46 44 45 41 40 28 18 19 24 30 25 26 25 23 28 32 37 44 45 47 53 56 57 75 76 75
19 19 14 15 19 23 26 27 11 13 21 29 34 34 36 37 48 32 34 38 33 38 38 29 23 24 24 24 23 23 20 17 19 25 39 42 48 51 50 48 67 67 68
19 16 19 20 22 29 10 9 12 18 27 32 31 32 35 28 19 10 19 25 32 35 34 30 30 22 25 24 21 17 15 12 13 20 23 31 33 39 43 42 56 62 61
Wind_Direction
274 261 275 248 200 217 286 301 322 215 230 255 258 255 53 256 33 275 318 263 297 294 282 262 268 274 243 181 173 175 175 195 97 164 137 77 10 343 341 353 357 349 336
297 291 273 267 292 276 261 227 238 284 295 311 259 273 271 304 215 79 268 268 286 271 261 257 257 245 235 193 235 192 188 192 246 243 319 318 330 340 347 342 338 328 339
278 266 279 266 292 273 267 245 246 256 264 281 286 277 264 284 270 267 54 328 272 273 283 268 251 246 262 240 251 235 219 243 272 286 323 1 2 336 350 340 344 336 319
291 285 263 265 278 280 278 259 268 260 261 279 284 278 286 259 247 265 285 212 281 275 228 265 262 247 259 253 239 246 241 255 266 288 292 309 340 342 332 345 337 311 310
260 287 275 283 254 277 278 281 274 266 283 290 288 271 275 273 284 267 248 259 222 274 268 244 256 260 261 267 267 259 262 269 250 279 278 303 289 335 313 321 333 324 295
279 287 261 270 289 297 283 297 277 276 267 270 287 278 282 283 272 282 277 282 264 229 234 243 256 256 253 265 269 269 267 261 269 274 279 272 291 295 329 324 323 322 321
251 276 268 278 285 275 288 277 274 279 271 284 269 275 269 281 271 269 278 283 281 269 239 238 255 247 250 257 260 258 265 273 276 257 256 257 293 266 279 292 309 323 319
268 282 286 288 286 279 276 274 281 278 275 280 275 270 272 275 272 273 269 236 256 267 263 243 257 251 255 251 257 261 266 269 266 237 246 278 294 294 283 284 290 302 308
271 281 274 281 285 278 275 276 271 276 279 278 277 279 274 270 267 274 275 268 260 257 258 266 258 263 260 249 252 255 260 262 266 267 274 279 272 255 297 284 289 285 287
267 265 268 276 279 276 277 275 275 276 275 276 276 277 274 271 264 264 266 268 280 257 269 262 264 267 262 247 254 253 257 262 263 267 267 272 272 272 267 280 267 258 276
279 273 272 288 269 270 272 272 269 270 274 277 275 277 276 273 271 275 273 271 274 272 267 261 256 264 259 255 255 254 257 258 258 262 263 263 257 266 269 264 275 275 267
269 276 277 277 278 278 281 281 279 280 281 283 277 282 283 275 275 270 267 270 269 267 269 268 268 262 259 257 248 252 253 257 259 261 265 267 269 263 261 272 269 272 261
274 277 279 278 278 276 278 279 274 274 275 274 274 276 277 280 279 278 278 277 274 271 270 264 263 257 259 257 258 258 254 253 255 256 253 263 266 267 265 268 270 267 267
278 276 277 277 275 275 278 280 280 278 276 280 281 281 280 279 278 278 278 277 274 272 269 268 268 265 253 255 261 252 256 255 252 258 257 253 260 264 259 262 266 270 265
278 278 271 275 278 281 279 279 276 274 277 278 280 281 281 280 279 278 274 277 272 268 265 263 264 263 263 267 252 253 252 254 256 256 253 249 256 261 258 259 262 264 267
280 274 283 284 281 276 278 276 275 274 274 275 276 276 278 278 278 278 277 276 274 272 267 262 259 258 259 261 261 260 251 252 253 250 252 252 253 256 256 255 254 265 261
276 276 274 276 278 280 279 282 281 282 282 284 283 281 279 278 276 271 272 274 275 275 272 269 265 261 259 259 259 259 259 259 250 250 251 253 251 254 254 253 254 255 259
279 277 275 277 277 280 277 277 276 277 278 277 280 281 283 279 278 275 272 271 271 271 271 270 267 266 264 263 261 261 260 259 257 253 249 247 251 249 249 254 255 262 254
276 275 275 277 276 274 271 279 275 277 280 282 279 282 282 279 279 278 275 274 273 271 268 267 262 261 260 262 263 262 262 260 258 256 253 250 246 246 247 244 251 252 256
280 279 279 282 275 279 278 279 277 279 286 280 278 275 278 283 284 283 280 274 270 267 267 265 261 258 258 259 260 261 260 257 257 258 256 253 248 245 243 246 246 245 249
281 278 278 280 281 274 278 280 280 285 287 283 278 278 280 284 282 289 294 289 277 267 261 261 260 260 260 262 261 263 266 265 268 263 261 261 253 248 244 242 243 243 243
276 278 281 282 280 279 280 278 279 281 280 277 280 285 277 274 278 280 285 294 296 297 268 260 251 255 259 260 264 264 264 265 264 264 262 261 262 259 244 241 240 241 243
287 285 285 282 282 280 279 277 279 277 278 285 275 269 274 275 278 278 284 286 290 297 291 261 242 245 242 256 266 268 264 264 265 268 266 264 264 258 254 241 239 239 240
290 283 278 283 284 287 281 277 280 286 271 267 265 271 280 290 290 285 281 279 282 289 290 271 243 243 256 276 280 276 273 276 276 277 267 260 256 256 251 244 234 236 239
278 280 287 280 279 277 282 290 265 264 260 270 278 288 297 297 293 279 255 258 274 280 284 276 272 266 278 283 299 290 285 289 292 300 274 267 256 254 246 238 222 234 235
274 278 276 274 282 297 260 237 253 265 269 281 294 298 305 308 306 288 258 251 264 262 257 261 274 272 278 296 297 317 287 289 314 320 312 271 255 246 240 230 213 229 234